Location: Kunchanapalle
(16.4623°N, 80.6176°E)
Time: 09:25:28
(UTC+00:00)

Delta 202 - Pass Details

Date: 13 August 2020
Orbit: 781 x 2713 km, 18.5° (Epoch: 18 September)

Event Time Altitude Azimuth Distance (km) Brightness Sun altitude
Rises 13:19:12 0° 272° (W) 4,964 9.6 -4.5°
Reaches altitude 10° 13:23:01 10° 274° (W) 3,663 8.7 -5.4°
Maximum altitude 13:31:52 76° 359° (N) 1,129 4.4 -7.4°
Drops below altitude 10° 13:37:55 10° 86° (E) 2,556 5.6 -8.8°
Enters shadow 13:38:15 - 86° (E) 2,679 5.7 -8.9°
